Meteo Giornale » Osservazioni meteo Tailandia » Don Muang

ore: 13:00 - Osservazioni Meteo Don Muang
Lat. 13° 55' N Lon. 100° 36' E Alt. 4 metri s.l.m.

poco_nuvoloso Asia/Bangkok

34 °C

Poco Nuvoloso

Temp. 24 Ore

28 °C

34 °C

Ovest/Sud-Ovest

16.7 Km/h

Dew point 24 °C

Umidità 56 %

Visibilità  10 Km

Il sole sorge alle ore 06:03

Il sole tramonta alle ore 18:38

Data e Ora Cielo e Fenomeni T °C DP °C Um. % Pres. hPa Vis. km Vento km/h
Oggi h: 13:00 poco_nuvoloso Poco Nuvoloso 34 24 56 1008 10 O/SO 16.7
Oggi h: 12:30 poco_nuvoloso Poco Nuvoloso 34 24 56 1008 10 O 18.5
Oggi h: 12:00 poco_nuvoloso Poco Nuvoloso 34 24 56 1008 10 O 18.5
Oggi h: 11:30 poco_nuvoloso Poco Nuvoloso 33 24 59 1009 10 O/NO 20.3
Oggi h: 11:00 poco_nuvoloso Poco Nuvoloso 34 23 52 1009 10 O/NO 18.5
Oggi h: 10:30 poco_nuvoloso Poco Nuvoloso 33 23 55 1009 10 O 20.3
Oggi h: 09:30 poco_nuvoloso Poco Nuvoloso 31 23 62 1010 10 S/SO 13
Oggi h: 09:00 poco_nuvoloso Poco Nuvoloso 30 22 62 1010 10 O/SO 13
Oggi h: 08:30 poco_nuvoloso Poco Nuvoloso 30 23 66 1010 10 O 13
Oggi h: 08:00 poco_nuvoloso Poco Nuvoloso 29 23 70 1010 10 O/SO 14.8
Oggi h: 07:30 poco_nuvoloso Poco Nuvoloso 29 23 70 1010 10 O 13
Oggi h: 07:00 poco_nuvoloso Poco Nuvoloso 28 23 74 1009 10 O/SO 11.1
Oggi h: 06:30 poco_nuvoloso Poco Nuvoloso 28 23 74 1009 10 O/SO 13
Oggi h: 06:00 poco_nuvoloso Poco Nuvoloso 28 23 74 1009 10 O 11.1
Oggi h: 05:30 poco_nuvoloso Poco Nuvoloso 28 23 74 1009 10 O/SO 13
Oggi h: 04:00 poco_nuvoloso Poco Nuvoloso 28 25 83 1008 10 O/SO 11.1
Oggi h: 03:30 poco_nuvoloso Poco Nuvoloso 28 25 83 1009 10 O/SO 13
Oggi h: 03:00 poco_nuvoloso Poco Nuvoloso 28 25 83 1009 10 SO 13
Oggi h: 02:30 poco_nuvoloso Poco Nuvoloso 28 25 83 1009 10 SO 14.8
Oggi h: 02:00 poco_nuvoloso Poco Nuvoloso 28 25 83 1009 10 SO 14.8
Oggi h: 01:30 poco_nuvoloso Poco Nuvoloso 28 25 83 1010 10 SO 11.1
Oggi h: 01:00 poco_nuvoloso Poco Nuvoloso 28 25 83 1010 10 SO 11.1
Oggi h: 00:30 poco_nuvoloso Poco Nuvoloso 29 25 79 1010 10 SO 13
Oggi h: 00:00 poco_nuvoloso Poco Nuvoloso 29 25 79 1010 10 SO 11.1
Ieri h: 23:30 poco_nuvoloso Poco Nuvoloso 28 26 88 1011 10 S/SO 7.4
Ieri h: 22:30 poco_nuvoloso Poco Nuvoloso 29 26 83 1011 10 S/SO 9.3
Ieri h: 22:00 poco_nuvoloso Poco Nuvoloso 29 25 79 1011 10 S/SO 11.1
Ieri h: 21:30 poco_nuvoloso Poco Nuvoloso 29 25 79 1010 10 S 13
Ieri h: 20:30 poco_nuvoloso Poco Nuvoloso 29 25 79 1009 10 S/SO 11.1
Ieri h: 20:00 nuvoloso Nuvoloso 29 25 79 1009 10 S/SO 14.8
Ieri h: 19:30 nuvoloso Nuvoloso 30 25 74 1009 10 O/SO 13
Ieri h: 19:00 coperto_pioggia Pioggia Debole 31 25 70 1009 8 SO 22.2
Ieri h: 18:30 molto_nuvoloso Molto Nuvoloso 31 25 70 1008 10 S/SO 18.5
Ieri h: 18:00 nuvoloso Nuvoloso 33 23 55 1008 10 O/SO 13
Ieri h: 17:30 nuvoloso Nuvoloso 34 24 56 1007 10 O/SO 14.8
Ieri h: 17:00 nuvoloso Nuvoloso 33 23 55 1007 10 SO 16.7
Ieri h: 16:30 nuvoloso Nuvoloso 34 23 52 1007 10 O/SO 16.7
Ieri h: 15:30 nuvoloso Nuvoloso 34 23 52 1008 10 O/SO 14.8
Ieri h: 15:00 nuvoloso Nuvoloso 33 23 55 1008 10 SO 13
Ieri h: 14:30 nuvoloso Nuvoloso 34 23 52 1008 10 O/SO 18.5
Ieri h: 14:00 nuvoloso Nuvoloso 34 23 52 1008 10 O 22.2